Madison, WI

9:21 AM CDT on July 28, 2017 (GMT -0500)
Dane County Regional-Truax

Weather History for KMSN - April, 2013

Change the Weather History Date:

Wednesday, April 24, 2013

  Actual Average Record
Temperature  
Mean Temperature 43 °F 50 °F  
Max Temperature 53 °F 61 °F 85 °F (1990)
Min Temperature 33 °F 39 °F 21 °F (1910)
Degree Days  
Heating Degree Days 22 15  
Month to date heating degree days 572 474  
Since 1 July heating degree days 6912 6923  
Cooling Degree Days 0 0  
Month to date cooling degree days 0 0  
Year to date cooling degree days 0 0  
Moisture  
Dew Point 24 °F    
Average Humidity 51    
Maximum Humidity 75    
Minimum Humidity 26    
Precipitation  
Precipitation T in 0.11 in 1.56 in (1955)
Month to date precipitation 5.76 2.70  
Year to date precipitation 13.45 7.58  
Snow  
Snow 0.00 in 0.10 in 0.40 in (1910)
Month to date snowfall 0.3 2.4  
Since 1 July snowfall 70.6 50.5  
Snow Depth 0.00 in    
Sea Level Pressure  
Sea Level Pressure 30.02 in    
Wind  
Wind Speed 8 mph (WNW)    
Max Wind Speed 17 mph    
Max Gust Speed 24 mph    
Visibility 10 miles    
Events      
T = Trace of Precipitation, MM = Missing Value Source: NWS Daily Summary

Daily Weather History Graph

Daily Weather History Graph

Search for Another Location

Airport or City:

Trip Planner

Search our weather history database for the weather conditions in past years. The results will help you decide how hot, cold, wet, or windy it might be!

Date:

Astronomy

Apr. 24, 2013 Rise Set
Actual Time 6:00 AM CDT 7:50 PM CDT
Civil Twilight 5:30 AM CDT 8:21 PM CDT
Nautical Twilight 4:53 AM CDT 8:58 PM CDT
Astronomical Twilight 4:13 AM CDT 9:39 PM CDT
Moon 6:53 PM CDT (4/24) 5:06 AM CDT (4/24)
Length of Visible Light 14h 51m
Length of Day
13h 50m
Waxing Gibbous, 98% of the Moon is Illuminated
Apr 24
Waxing Gibbous
Apr 25
Full
May 2
Last Quarter
May 9
New
May 17
First Quarter

Hourly Weather History & Observations

Time (CDT) Temp. Windchill Dew Point Humidity Pressure Visibility Wind Dir Wind Speed Gust Speed Precip Events Conditions
12:53 AM 37.0 °F 31.0 °F 26.1 °F 65% 30.03 in 10.0 mi NNW 8.1 mph - N/A   Mostly Cloudy
1:53 AM 36.0 °F 32.1 °F 27.0 °F 70% 30.03 in 10.0 mi North 4.6 mph - N/A   Clear
2:53 AM 34.0 °F 28.8 °F 26.1 °F 73% 30.00 in 10.0 mi NNW 5.8 mph - N/A   Clear
3:53 AM 34.0 °F 29.8 °F 25.0 °F 70% 30.01 in 10.0 mi NW 4.6 mph - N/A   Clear
4:53 AM 33.8 °F 28.6 °F 24.8 °F 70% 29.99 in 10.0 mi NW 5.8 mph - N/A   Clear
5:53 AM 34.0 °F 28.8 °F 25.0 °F 70% 30.03 in 10.0 mi NW 5.8 mph - N/A   Clear
6:53 AM 34.0 °F - 26.1 °F 73% 30.04 in 10.0 mi Calm Calm - N/A   Clear
7:53 AM 34.0 °F 29.8 °F 25.0 °F 70% 30.06 in 10.0 mi WNW 4.6 mph - N/A   Clear
8:53 AM 39.0 °F 34.0 °F 25.0 °F 57% 30.06 in 10.0 mi WNW 6.9 mph - N/A   Clear
9:53 AM 42.1 °F 36.6 °F 24.1 °F 49% 30.06 in 10.0 mi NNW 9.2 mph - N/A   Clear
10:53 AM 44.1 °F 38.1 °F 19.0 °F 37% 30.05 in 10.0 mi NW 11.5 mph - N/A   Partly Cloudy
11:53 AM 46.9 °F - 19.9 °F 34% 30.04 in 10.0 mi NW 11.5 mph 17.3 mph N/A   Partly Cloudy
12:53 PM 48.0 °F - 18.0 °F 30% 30.02 in 10.0 mi WNW 11.5 mph 18.4 mph N/A   Clear
1:53 PM 50.0 °F - 19.0 °F 29% 30.02 in 10.0 mi West 13.8 mph 20.7 mph N/A   Partly Cloudy
2:53 PM 51.1 °F - 18.0 °F 27% 30.01 in 10.0 mi WNW 9.2 mph 20.7 mph N/A   Partly Cloudy
3:53 PM 51.1 °F - 21.0 °F 31% 30.01 in 10.0 mi WNW 8.1 mph - N/A   Partly Cloudy
4:53 PM 52.0 °F - 19.9 °F 28% 30.01 in 10.0 mi Variable 6.9 mph 18.4 mph N/A   Partly Cloudy
5:53 PM 52.0 °F - 19.0 °F 27% 30.01 in 10.0 mi WNW 10.4 mph - N/A   Partly Cloudy
6:53 PM 50.0 °F - 25.0 °F 38% 30.01 in 10.0 mi Variable 5.8 mph - N/A   Scattered Clouds
7:53 PM 48.0 °F - 27.0 °F 44% 30.02 in 10.0 mi Variable 5.8 mph - N/A   Scattered Clouds
8:53 PM 48.0 °F - 26.1 °F 42% 30.03 in 10.0 mi SW 6.9 mph - N/A   Scattered Clouds
9:53 PM 46.9 °F - 26.1 °F 44% 30.02 in 10.0 mi South 9.2 mph - N/A   Scattered Clouds
10:53 PM 46.0 °F 41.0 °F 28.0 °F 50% 30.02 in 10.0 mi SSW 10.4 mph - N/A   Mostly Cloudy
11:53 PM 46.0 °F 41.9 °F 27.0 °F 47% 30.01 in 10.0 mi West 8.1 mph - N/A   Overcast